Location: Arboyeti
(42.1122°N, 44.6017°E)
Time: 05:39:51
(UTC+00:00)

Cosmos 1455 - Pass Details

Date: 19 April 2021
Orbit: 497 x 521 km, 82.5° (Epoch: 09 May)

Event Time Altitude Azimuth Distance (km) Brightness Sun altitude
Rises 17:20:57 0° 204° (SSW) 2,591 5.7 -16.6°
Reaches altitude 10° 17:23:10 10° 212° (SSW) 1,708 4.8 -16.9°
Maximum altitude 17:26:40 38° 282° (WNW) 777 3.6 -17.4°
Drops below altitude 10° 17:30:12 10° 352° (N) 1,712 5.4 -18.0°
Sets 17:32:25 0° 1° (N) 2,599 6.3 -18.3°
